Overview Statistics Trail Chart Weather Telemetry Raw packets
 

This is the latest recevied weather packets stored in our database for station/object N0HOT. If no packets are shown the sender has not sent any weather packets the latest 10 day(s).

<< 74 75 76 77 78 79 80 >>
Time Temp. Humidity Pressure Rain* Wind** Luminosity Snow
1788122943 28.33° C 59% 1009.4 hPa 0 mm - 555 W/m² -
1788122641 28.33° C 62% 1009.8 hPa 0 mm - 233 W/m² -
1788122336 28.33° C 63% 1009.8 hPa 0 mm - 229 W/m² -
1788122033 28.33° C 62% 1009.8 hPa 0 mm - 278 W/m² -
1788121731 28.89° C 62% 1009.8 hPa 0 mm - 131 W/m² -
1788121427 28.89° C 60% 1009.8 hPa 0 mm - 176 W/m² -
1788121122 28.89° C 63% 1009.8 hPa 0 mm - 363 W/m² -
1788120817 28.89° C 62% 1009.8 hPa 0 mm - 170 W/m² -
1788120512 28.33° C 62% 1010.1 hPa 0 mm - 111 W/m² -
1788120211 28.33° C 61% 1010.1 hPa 0 mm - 296 W/m² -
1788119907 28.33° C 61% 1010.1 hPa 0 mm - 484 W/m² -
1788119606 28.33° C 61% 1010.1 hPa 0 mm - 227 W/m² -
1788119299 28.33° C 62% 1010.1 hPa 0 mm - 261 W/m² -
1788118998 28.33° C 64% 1010.1 hPa 0 mm - 349 W/m² -
1788118694 28.33° C 63% 1010.5 hPa 0 mm - 207 W/m² -
1788118388 28.33° C 63% 1010.1 hPa 0 mm - 248 W/m² -
1788118084 28.33° C 62% 1010.1 hPa 0 mm - 199 W/m² -
1788117783 28.33° C 60% 1010.5 hPa 0 mm - 210 W/m² -
1788117480 28.33° C 60% 1010.5 hPa 0 mm - 454 W/m² -
1788117179 27.78° C 61% 1010.5 hPa 0 mm - 411 W/m² -
1788116875 27.78° C 63% 1010.5 hPa 0 mm - 432 W/m² -
1788116570 27.78° C 61% 1010.1 hPa 0 mm - 261 W/m² -
1788116268 27.78° C 63% 1010.5 hPa 0 mm - 291 W/m² -
1788115964 27.78° C 63% 1010.1 hPa 0 mm - 291 W/m² -
1788115663 27.78° C 64% 1009.8 hPa 0 mm - 317 W/m² -

* Rain latest hour (hover to see other rain measurements)
** Current wind speed in m/s (hover to see current wind gust speed)